Total_Precipitation_Accumulation
0.42 0.32 0.39 0.37 0.34 0.42 0.43 0.54 0.61 0.57 0.52 0.50 0.50 0.53 0.53 0.53 0.52 0.48 0.49 0.61 0.73 0.86 1.02 1.26 1.35 1.41 1.41 1.50 1.60 1.64 1.77 1.75 1.89 2.13 2.42 2.53 2.56 2.40 2.34 2.56 2.62 2.37 2.36
0.33 0.31 0.32 0.29 0.28 0.35 0.45 0.56 0.56 0.56 0.55 0.53 0.50 0.55 0.60 0.60 0.55 0.49 0.51 0.66 0.85 0.99 1.09 1.25 1.35 1.35 1.38 1.45 1.58 1.70 1.84 1.77 1.90 2.31 2.66 2.74 2.87 2.71 2.58 2.59 2.62 2.69 2.48
0.42 0.41 0.27 0.29 0.29 0.34 0.45 0.53 0.59 0.56 0.55 0.51 0.50 0.50 0.55 0.56 0.60 0.63 0.67 0.82 1.03 1.24 1.29 1.29 1.39 1.42 1.39 1.47 1.61 1.75 1.80 1.85 2.19 2.66 3.09 2.83 2.71 2.73 2.63 2.67 2.45 2.27 2.17
0.39 0.39 0.27 0.31 0.37 0.39 0.43 0.51 0.64 0.60 0.58 0.54 0.51 0.51 0.55 0.59 0.67 0.78 0.89 1.02 1.15 1.33 1.47 1.61 1.78 1.67 1.47 1.44 1.47 1.60 1.82 2.01 2.46 2.94 3.36 3.01 2.70 3.06 3.03 2.74 2.47 2.19 2.08
0.30 0.32 0.36 0.40 0.43 0.46 0.46 0.50 0.61 0.64 0.66 0.67 0.67 0.61 0.62 0.66 0.70 0.75 0.89 1.01 1.08 1.15 1.31 1.43 1.54 1.61 1.46 1.39 1.39 1.55 1.84 2.11 2.60 3.08 3.47 3.26 3.14 3.52 3.22 2.81 2.60 2.24 2.07
0.36 0.30 0.37 0.46 0.47 0.50 0.52 0.54 0.56 0.62 0.72 0.81 0.87 0.82 0.79 0.80 0.82 0.86 0.96 0.99 1.06 1.08 1.15 1.25 1.41 1.53 1.52 1.46 1.43 1.63 1.94 2.21 2.42 2.83 3.47 3.25 3.09 3.37 3.14 2.97 2.72 2.34 2.16
0.55 0.51 0.46 0.49 0.51 0.55 0.59 0.62 0.68 0.70 0.78 0.89 0.97 1.02 1.01 0.95 0.90 0.96 1.07 1.03 1.03 1.07 1.12 1.11 1.18 1.25 1.48 1.54 1.45 1.58 2.04 2.48 2.41 3.01 3.43 3.25 3.30 3.27 3.16 3.15 2.94 2.56 2.28
0.72 0.67 0.67 0.62 0.55 0.62 0.71 0.71 0.77 0.86 0.90 0.99 1.07 1.19 1.14 1.03 0.98 1.04 1.13 1.20 1.20 1.23 1.25 1.11 1.05 1.09 1.28 1.46 1.39 1.52 1.85 2.17 2.11 2.73 3.24 3.05 3.00 3.06 3.11 3.16 2.85 2.53 2.30
0.93 0.91 0.92 0.76 0.70 0.76 0.88 0.87 0.88 0.93 0.98 1.08 1.25 1.37 1.30 1.18 1.14 1.14 1.20 1.29 1.36 1.35 1.34 1.28 1.20 1.17 1.19 1.33 1.41 1.58 1.86 2.19 2.23 2.50 2.71 3.02 2.94 3.32 3.23 3.02 2.75 2.37 2.15
1.29 1.27 1.19 1.18 1.14 1.03 1.06 1.19 1.15 1.12 1.11 1.11 1.19 1.43 1.45 1.32 1.22 1.27 1.23 1.35 1.44 1.47 1.43 1.43 1.48 1.43 1.35 1.33 1.43 1.56 1.89 2.10 1.92 2.22 2.83 2.85 2.92 3.47 3.56 3.05 2.70 2.44 2.24
1.69 1.64 1.42 1.47 1.48 1.34 1.30 1.26 1.39 1.37 1.31 1.26 1.29 1.44 1.48 1.55 1.53 1.50 1.43 1.65 1.65 1.73 1.82 1.79 1.71 1.63 1.58 1.51 1.55 1.65 1.82 1.83 2.06 2.50 2.82 2.68 2.92 3.43 3.73 3.47 2.93 2.66 2.43
1.88 1.81 1.73 1.59 1.52 1.48 1.39 1.47 1.61 1.56 1.57 1.46 1.64 1.62 1.72 2.12 2.26 1.95 2.12 2.26 2.28 2.28 2.28 2.18 2.07 1.96 1.78 1.47 1.58 1.78 1.56 1.74 2.25 2.68 2.55 2.58 2.87 3.39 3.80 3.74 3.36 3.00 2.77
2.24 2.05 2.09 1.94 1.78 1.94 2.01 1.90 1.89 1.94 2.06 1.93 2.08 2.12 2.24 2.45 2.47 2.46 2.57 2.50 2.58 2.62 2.51 2.44 2.22 1.92 1.74 1.62 1.69 1.77 1.57 1.60 1.93 2.20 2.40 2.58 2.82 3.38 3.78 3.70 3.59 3.51 3.31
2.87 2.68 2.54 2.51 2.38 2.48 2.72 2.51 2.20 2.10 2.19 2.25 2.47 2.39 2.68 2.82 2.79 2.76 2.82 2.74 2.73 2.79 2.86 2.64 2.47 2.29 2.16 1.97 1.80 1.82 1.76 1.73 1.92 2.18 2.44 2.53 2.63 3.20 3.70 3.75 3.69 3.68 3.74
3.05 3.17 2.92 2.86 2.81 2.99 3.18 3.03 2.77 2.70 2.47 2.42 2.73 2.78 2.92 3.07 3.03 3.10 3.04 3.02 2.82 2.80 2.81 2.72 2.55 2.57 2.49 2.23 1.97 1.96 2.03 1.98 2.09 2.34 2.42 2.57 2.60 2.96 3.52 3.83 3.83 3.84 4.00
2.91 3.16 3.29 3.29 3.22 3.05 3.16 3.19 2.97 2.71 2.80 2.68 2.70 2.83 2.85 3.05 3.32 3.37 3.32 3.29 3.22 3.13 3.17 2.98 2.81 2.96 2.83 2.69 2.47 2.33 2.24 2.32 2.31 2.39 2.58 2.74 2.66 2.67 3.07 3.51 3.76 3.97 4.24
2.81 2.92 3.08 3.25 3.42 3.26 3.25 3.29 3.11 2.90 2.89 2.96 3.03 3.21 3.05 3.03 3.35 3.48 3.63 3.57 3.57 3.50 3.49 3.40 3.33 3.41 3.10 2.91 2.71 2.57 2.54 2.63 2.60 2.54 2.67 2.83 2.75 2.80 2.85 2.97 3.18 3.45 3.79
2.42 2.71 2.95 3.14 3.36 3.56 3.61 3.71 3.47 3.48 3.51 3.45 3.29 3.28 3.20 3.19 3.40 3.72 3.83 3.87 3.93 3.84 3.91 3.96 3.84 3.69 3.56 3.32 3.08 2.74 2.62 2.80 2.81 2.77 2.77 2.80 2.98 2.90 2.90 2.79 2.84 2.95 3.27
2.13 2.62 2.98 3.33 3.72 3.94 4.11 4.32 4.24 4.27 4.12 3.96 3.87 3.72 3.77 3.90 3.92 4.07 4.16 4.24 4.30 4.34 4.35 4.14 4.29 4.07 4.00 3.81 3.34 3.05 2.76 2.69 2.71 2.64 2.74 2.66 2.77 2.86 2.97 2.91 2.85 2.86 3.08
2.29 2.69 3.09 3.39 3.98 4.49 4.56 4.73 4.81 5.01 4.96 4.82 4.83 4.65 4.41 4.51 4.59 4.73 4.61 4.65 4.71 4.80 4.67 4.65 4.73 4.50 4.19 4.13 3.64 3.35 3.08 2.79 2.75 2.74 2.73 2.80 2.71 2.53 2.72 2.87 3.02 2.85 3.05
2.92 3.09 3.34 3.59 3.95 4.23 4.61 4.93 5.14 5.35 5.57 5.65 5.58 5.51 5.46 5.43 5.56 5.62 5.33 5.32 5.23 5.10 4.88 4.84 4.74 4.50 4.23 4.20 4.10 3.67 3.07 2.67 2.59 2.47 2.48 2.68 2.67 2.56 2.64 2.78 2.82 2.74 2.64
3.31 3.39 3.62 3.98 4.29 4.47 4.86 5.39 5.87 6.07 6.19 6.19 6.18 6.28 6.28 6.25 6.40 6.46 6.42 6.14 5.94 5.65 5.15 4.80 4.68 4.44 4.06 4.19 4.25 4.22 3.51 3.02 2.51 2.06 2.14 2.18 2.26 2.51 2.49 2.46 2.60 2.72 2.60
3.29 3.42 3.59 4.11 4.59 5.06 5.52 6.09 6.57 6.87 6.89 6.73 6.41 6.48 6.58 6.40 6.45 6.64 6.62 6.39 6.03 5.47 4.90 4.75 4.72 4.57 4.28 4.21 4.15 4.40 3.82 3.26 2.82 2.32 2.01 1.91 2.05 2.20 2.22 2.25 2.31 2.41 2.40
3.14 3.41 3.66 4.09 4.79 5.33 5.64 6.28 6.94 7.18 7.37 7.41 7.19 6.87 6.63 6.35 6.20 6.13 5.97 5.56 5.19 4.84 4.53 4.38 4.44 4.34 4.33 4.13 4.05 3.78 3.53 3.22 3.00 2.63 2.16 1.93 1.99 2.05 2.06 2.02 2.07 2.27 2.37
3.02 3.13 3.39 3.97 4.64 5.39 6.02 6.52 7.14 7.62 7.83 7.75 7.29 6.78 6.22 5.86 5.40 4.96 4.62 4.42 4.36 4.20 4.00 3.86 3.86 3.77 3.59 3.50 3.50 3.49 3.46 3.19 2.88 2.71 2.42 2.21 2.15 1.96 1.94 2.04 2.11 2.24 2.42
2.70 2.95 3.25 3.70 4.43 5.16 5.76 6.34 6.86 7.25 7.34 7.01 6.45 5.91 5.55 5.14 4.60 4.04 3.76 3.59 3.50 3.34 3.13 3.02 3.03 3.04 3.12 3.18 3.28 3.30 3.27 3.20 3.00 2.97 2.77 2.51 2.38 2.22 2.11 2.09 2.11 2.24 2.46